Tracking 35237 objects as of 6-Sep-2026
HD Live streaming from Space Station
objects crossing your sky now

COSMOS 2421 DEB


COSMOS 2421 DEB is no longer on orbit


NORAD ID: 32830
Int'l Code: 2006-026CE
Launch date: June 25, 2006
Source: Commonwealth of Independent States (former USSR) (CIS)
Launch site: TYURATAM MISSILE AND SPACE COMPLEX (TTMTR)
Decay date: 2010-03-28

Note: This is SATELLITE DEBRIS
Your satellite tracking list
Your tracking list is empty




NASA's NSSDC Master Catalog

Two Line Element Set (TLE):
1 32830U 06026CE  10087.34023746  .61872527  74391-5  12740-2 0  9998
2 32830 065.1274 060.3563 0013117 233.3420 129.2000 16.45848802108049
Source of the keplerian elements: AFSPC